This is the latest recevied weather packets stored in our database for station/object KO4WIL-13. If no packets are shown the sender has not sent any weather packets the latest 10 day(s).
| Time | Temp. | Humidity | Pressure | Rain* | Wind** | Luminosity | Snow |
|---|---|---|---|---|---|---|---|
| 1777650810 | 15° C | 52% | 966.7 hPa | 0 mm | - | - | - |
| 1777650508 | 15° C | 54% | 966.8 hPa | 0 mm | - | - | - |
| 1777650206 | 15° C | 54% | 966.8 hPa | 0 mm | - | - | - |
| 1777649904 | 14.44° C | 53% | 966.8 hPa | 0 mm | - | - | - |
| 1777649602 | 14.44° C | 53% | 966.8 hPa | 0 mm | - | - | - |
| 1777649300 | 14.44° C | 58% | 966.9 hPa | 0 mm | - | - | - |
| 1777648998 | 14.44° C | 59% | 966.9 hPa | 0 mm | - | - | - |
| 1777648696 | 14.44° C | 58% | 966.9 hPa | 0 mm | - | - | - |
| 1777648394 | 14.44° C | 57% | 966.9 hPa | 0 mm | - | - | - |
| 1777648092 | 14.44° C | 57% | 966.9 hPa | 0 mm | - | - | - |
| 1777647790 | 13.89° C | 59% | 967 hPa | 0 mm | - | - | - |
| 1777647488 | 13.89° C | 60% | 967 hPa | 0 mm | - | - | - |
| 1777647186 | 13.89° C | 58% | 967 hPa | 0 mm | - | - | - |
| 1777646884 | 14.44° C | 57% | 967 hPa | 0 mm | - | - | - |
| 1777646582 | 14.44° C | 58% | 967 hPa | 0 mm | - | - | - |
| 1777646280 | 14.44° C | 55% | 966.9 hPa | 0 mm | - | - | - |
| 1777645978 | 13.89° C | 57% | 966.8 hPa | 0 mm | - | - | - |
| 1777645676 | 13.89° C | 58% | 966.6 hPa | 0 mm | - | - | - |
| 1777645374 | 13.33° C | 59% | 966.6 hPa | 0 mm | - | - | - |
| 1777645072 | 13.33° C | 60% | 966.5 hPa | 0 mm | - | - | - |
| 1777644770 | 12.78° C | 63% | 966.5 hPa | 0 mm | - | - | - |
| 1777644468 | 12.22° C | 64% | 966.4 hPa | 0 mm | - | - | - |
| 1777644166 | 12.78° C | 63% | 966.4 hPa | 0 mm | - | - | - |
| 1777643864 | 12.78° C | 63% | 966.5 hPa | 0 mm | - | - | - |
| 1777643562 | 12.22° C | 64% | 966.5 hPa | 0 mm | - | - | - |
* Rain latest hour (hover to see other rain measurements)
** Current wind speed in m/s (hover to see current wind gust speed)